Regional Weather Roundup
Issued by NWS

Home | Current Version | Previous Version | Text Only | Print | Product List | Glossary On
Versions: 1 2 3 4 5 6 7 8 9 10 11 12 13 14 15 16 17 18 19 20 21 22 23 24 25 26 27 28 29 30 31 32 33 34 35 36 37 38 39 40 41 42 43 44 45 46 47 48 49 50
000
ASUS44 KMEG 181700
RWRTN
TENNESSEE HOURLY STATE WEATHER ROUNDUP
NATIONAL WEATHER SERVICE MEMPHIS TN
1200 PM CDT THU SEP 18 2014

TNZ002-004-019-021-049-052-054-088>092-181800-
WEST TENNESSEE

CITY           SKY/WX    TMP DP  RH WIND       PRES   REMARKS
MEMPHIS INTL   CLOUDY    80  67  64 CALM      29.96F
NWS MEMPHIS      N/A     77 N/A N/A MISG        N/A
JACKSON        CLOUDY    69  63  81 NE5       30.01R
DYERSBURG      CLOUDY    66  55  68 CALM      30.03S
PARIS          MOSUNNY   70  57  64 E7        30.03R
$$

TNZ008-025-027-028-033-062-065-066-181800-
NORTH MIDDLE TENNESSEE

CITY           SKY/WX    TMP DP  RH WIND       PRES   REMARKS
NASHVILLE      PTSUNNY   74  56  53 E5        30.03F
CLARKSVILLE    CLOUDY    73  56  54 NE8       30.03S
COOKEVILLE     SUNNY     75  57  53 NE3       30.03S
CROSSVILLE     MOSUNNY   73  50  44 E5        30.06S
$$

TNZ061-075-076-078-094-096-097-181800-
SOUTH MIDDLE TENNESSEE

CITY           SKY/WX    TMP DP  RH WIND       PRES   REMARKS
SHELBYVILLE    PTSUNNY   79  55  44 VRB5      30.03S
$$

TNZ017-018-042-046-047-181800-
NORTHEAST TENNESSEE

CITY           SKY/WX    TMP DP  RH WIND       PRES   REMARKS
TRI CITIES     PTSUNNY   72  54  53 VRB3      30.06S
$$

TNZ012-013-036-069-073-074-181800-
CENTRAL EAST TENNESSEE

CITY           SKY/WX    TMP DP  RH WIND       PRES   REMARKS
KNOXVILLE      PTSUNNY   76  52  43 N6        30.01F
OAK RIDGE      MOSUNNY   76  52  43 VRB6      30.04F
$$

TNZ083-085-099-181800-
SOUTHEAST TENNESSEE

CITY           SKY/WX    TMP DP  RH WIND       PRES   REMARKS
CHATTANOOGA    PTSUNNY   78  54  43 NW3       30.01F
$$

SKY/WX REPORTED AS FAIR MEANS FEW OR NO CLOUDS BELOW
12 THOUSAND FEET.



USA.gov is the U.S. government's official web portal to all federal, state and local government web resources and services.